DW8065 Weather Reports


Display with metric or nautical units.
time (UTC)temp
F
wind
direction
speed
MPH
gust
MPH
rain 1hr
in
rain 24hr
in
rain mn
in
humidity
%
barometer
mb
20260902071513 61 197 0.0 0.0 0.00 0.27 0.01 92 1020.8
20260902070013 62 197 0.0 0.0 0.00 0.27 0.01 92 1020.9
20260902064511 62 198 0.0 0.0 0.00 0.27 0.01 92 1020.8
20260902063009 62 198 0.0 0.0 0.00 0.27 0.01 92 1020.5
20260902061507 62 198 0.0 0.0 0.00 0.27 0.01 92 1020.5
20260902060007 62 198 0.0 0.0 0.00 0.27 0.01 92 1020.4
20260902054504 62 198 0.0 0.0 0.01 0.27 0.01 92 1020.2
20260902053004 62 198 0.0 0.0 0.01 0.27 0.01 92 1020.0
20260902051502 62 198 0.0 0.0 0.01 0.27 0.01 92 1020.0
20260902050003 62 198 0.0 0.0 0.01 0.27 0.01 92 1019.9
20260902044559 62 198 0.0 0.0 0.00 0.26 0.00 92 1019.8
20260902043104 62 198 0.0 0.0 0.00 0.26 0.00 92 1019.6
20260902041554 62 198 0.0 0.0 0.00 0.26 0.00 92 1019.3
20260902040053 62 198 0.0 0.0 0.00 0.26 0.00 92 1019.2
20260902034556 63 198 0.0 1.0 0.00 0.26 0.26 92 1019.2
20260902033055 63 198 0.0 0.0 0.00 0.26 0.26 91 1019.3
20260902031551 63 198 0.0 0.0 0.00 0.26 0.26 91 1019.3
20260902030050 63 155 0.0 0.0 0.00 0.26 0.26 91 1019.1
20260902024547 63 81 0.0 1.0 0.00 0.26 0.26 92 1019.0
20260902023051 63 158 0.0 1.0 0.00 0.26 0.26 92 1018.9
20260902021546 63 156 0.0 0.0 0.00 0.26 0.26 92 1018.8
20260902020045 63 238 0.0 0.0 0.00 0.26 0.26 92 1018.8
20260902014548 63 238 0.0 0.0 0.00 0.26 0.26 92 1018.8
20260902013047 64 274 0.0 0.0 0.00 0.26 0.26 91 1018.8
20260902011549 64 274 0.0 1.0 0.00 0.26 0.26 91 1018.9
20260902010047 64 247 0.0 0.0 0.00 0.26 0.26 90 1018.9
20260902004543 64 247 0.0 0.0 0.00 0.26 0.26 90 1018.9
20260902003040 65 247 0.0 1.0 0.00 0.26 0.26 89 1018.7
20260902001543 65 256 0.0 1.0 0.00 0.26 0.26 88 1018.4
20260902000045 65 155 0.0 0.0 0.00 0.26 0.26 87 1018.2
20260901234538 65 172 0.0 0.0 0.00 0.26 0.26 86 1018.1
20260901233039 66 172 0.0 0.0 0.00 0.26 0.26 86 1017.9
20260901231536 66 154 0.0 0.0 0.00 0.26 0.26 86 1018.1
20260901230036 67 154 0.0 0.0 0.00 0.26 0.26 85 1017.9
20260901224535 67 154 0.0 0.0 0.00 0.26 0.26 84 1017.8
20260901223034 67 154 0.0 0.0 0.00 0.26 0.26 84 1017.9
20260901221538 67 207 0.0 4.0 0.00 0.26 0.26 83 1017.9
20260901220036 68 177 0.0 3.0 0.00 0.26 0.26 83 1017.9
20260901214547 68 96 0.0 1.0 0.00 0.26 0.26 83 1017.7
20260901213032 68 164 0.0 4.0 0.00 0.26 0.26 83 1017.4
20260901211533 68 139 0.0 2.0 0.00 0.26 0.26 82 1017.5
20260901210031 69 165 0.0 0.0 0.00 0.26 0.26 81 1017.5
20260901204535 70 161 0.0 1.0 0.00 0.26 0.26 79 1017.3
20260901203030 70 179 0.0 0.0 0.00 0.26 0.26 79 1017.0
20260901201529 70 7 0.0 1.0 0.00 0.26 0.26 76 1017.2
20260901200028 71 274 0.0 1.0 0.00 0.26 0.26 74 1017.1
20260901194527 71 271 0.0 2.0 0.00 0.26 0.26 72 1017.0
20260901193029 71 295 0.0 3.0 0.00 0.26 0.26 73 1017.2
20260901191624 70 32 0.0 3.0 0.00 0.26 0.26 74 1017.2
20260901190022 70 206 0.0 1.0 0.00 0.26 0.26 75 1017.4
20260901184523 70 21 0.0 1.0 0.00 0.26 0.26 74 1017.4
20260901183036 70 177 0.0 0.0 0.00 0.26 0.26 77 1017.5
20260901181520 70 174 0.0 0.0 0.00 0.26 0.26 76 1017.5
20260901180020 70 179 0.0 0.0 0.00 0.26 0.26 74 1017.4
20260901174518 69 104 0.0 2.0 0.00 0.26 0.26 73 1017.4
20260901173025 69 241 0.0 1.0 0.00 0.26 0.26 72 1017.2
20260901171511 68 288 0.0 1.0 0.00 0.26 0.26 78 1017.2
20260901170011 68 308 0.0 2.0 0.00 0.26 0.26 77 1017.2
20260901164507 67 263 0.0 0.0 0.00 0.26 0.26 81 1017.3
20260901163004 65 304 0.0 0.0 0.00 0.26 0.26 85 1017.4
20260901161625 64 111 0.0 0.0 0.00 0.26 0.26 87 1017.4
20260901154617 63 212 0.0 1.0 0.00 0.26 0.26 87 1017.9
20260901153105 63 41 0.0 0.0 0.01 0.26 0.26 90 1017.8
20260901151553 62 38 0.0 0.0 0.01 0.26 0.26 91 1018.1
20260901144549 61 117 0.0 1.0 0.02 0.26 0.26 91 1018.1
20260901143049 61 141 0.0 1.0 0.01 0.25 0.25 92 1017.8
20260901141558 61 185 0.0 0.0 0.01 0.25 0.25 92 1017.5
20260901140053 61 187 0.0 0.0 0.02 0.25 0.25 92 1017.5
20260901134545 60 34 0.0 1.0 0.01 0.24 0.24 92 1017.6
20260901133042 60 34 0.0 0.0 0.01 0.24 0.24 92 1017.9
20260901131543 59 34 0.0 0.0 0.02 0.24 0.24 92 1018.0
20260901130040 59 34 0.0 1.0 0.05 0.23 0.23 93 1018.1
20260901124546 59 34 0.0 3.0 0.08 0.23 0.23 92 1018.3
20260901123039 59 360 0.0 0.0 0.11 0.23 0.23 93 1018.2
20260901121540 59 360 0.0 0.0 0.12 0.22 0.22 93 1018.3
20260901120036 59 360 0.0 0.0 0.10 0.18 0.18 92 1018.3
20260901114537 59 360 0.0 0.0 0.12 0.15 0.15 92 1018.2
20260901113049 59 360 0.0 0.0 0.10 0.12 0.12 92 1018.4
20260901111533 59 332 1.0 5.0 0.10 0.10 0.10 92 1018.3
20260901110032 59 13 0.0 1.0 0.08 0.08 0.08 92 1017.9
20260901104530 59 152 0.0 1.0 0.03 0.03 0.03 91 1017.6
20260901103033 59 27 0.0 2.0 0.01 0.01 0.01 91 1017.6
20260901101529 59 32 0.0 0.0 0.00 0.00 0.00 90 1017.2
20260901100028 59 32 0.0 0.0 0.00 0.00 0.00 90 1017.1
20260901094528 59 32 0.0 1.0 0.00 0.00 0.00 90 1017.3
20260901093030 59 32 0.0 2.0 0.00 0.00 0.00 91 1017.3
20260901091525 59 32 0.0 1.0 0.00 0.00 0.00 90 1017.3
20260901090024 59 31 0.0 0.0 0.00 0.00 0.00 90 1017.0
20260901084522 59 31 0.0 0.0 0.00 0.00 0.00 90 1017.2
20260901083021 59 31 0.0 1.0 0.00 0.00 0.00 90 1017.3
20260901081520 59 27 0.0 1.0 0.00 0.00 0.00 90 1017.4
20260901080023 59 27 0.0 1.0 0.00 0.00 0.00 91 1017.4
20260901074520 59 25 0.0 0.0 0.00 0.00 0.00 91 1017.3
20260901073017 59 25 0.0 0.0 0.00 0.00 0.00 91 1017.4